Location: Sungai Apap
(2.6167°N, 113.3833°E)
Time: 14:51:07
(UTC+00:00)

IRS-1C - Pass Details

Date: 25 May 2024
Orbit: 814 x 815 km, 99.0° (Epoch: 12 June)

Event Time Altitude Azimuth Distance (km) Brightness Sun altitude
Rises 21:28:05 0° 3° (N) 3,322 7.7 -11.9°
Reaches altitude 10° 21:30:28 10° 358° (N) 2,393 6.8 -11.4°
Maximum altitude 21:35:35 52° 283° (WNW) 1,007 4.3 -10.2°
Drops below altitude 10° 21:40:44 10° 208° (SSW) 2,401 6.1 -9.0°
Sets 21:43:08 0° 203° (SSW) 3,335 6.9 -8.4°
